[[{"header":{"parameterUnit":"m.s-1","parameterCategory":2,"la1":30.2991,"la2":30.254,"lo1":-89.0895,"lo2":-89.0444,"dy":0.0017,"dx":0.0017,"nx":28,"ny":28,"refTime":"2024-06-06T21:00:00:Z","depth":"0","parameterNumber":2,"parameterNumberName":"U-component_of_CURRENTS"},"data":[0,0,0,0,0,0,0,0,0,0,0,0,0,0,0,0,0,0,0,0,0,0,0,0,0,0,0,0,0,0,0,0,0,0,0,0,0,0,0,0,0,0,0,0,0,0,0,0,0,0,0,0,0,0,0,0,0,0,-0.3617,-0.3621,0,-0.3866,-0.3867,-0.3869,-0.3923,-0.3923,-0.3923,-0.3922,-0.4085,-0.409,-0.4094,0,0,0,0,0,0,0,0,0,0,0,0,0,-0.316,-0.3167,-0.3617,-0.3622,-0.3626,-0.3866,-0.3867,-0.3869,-0.3923,-0.3923,-0.3922,-0.3922,-0.4084,-0.4089,-0.4095,0,0,0,0,0,0,0,0,0,0,0,0,0,-0.3362,-0.3169,-0.3616,-0.3695,-0.3705,-0.3865,-0.3867,-0.387,-0.3923,-0.3923,-0.3922,-0.3922,-0.4082,-0.4089,-0.4095,-0.4144,0,0,-0.4116,-0.4119,0,0,0,0,0,0,0,0,-0.335,-0.3377,-0.3678,-0.369,-0.3702,-0.3878,-0.3767,-0.3963,-0.3923,-0.3822,-0.3922,-0.3922,-0.402,-0.4031,-0.4056,-0.4152,-0.4159,-0.4117,-0.4121,-0.4124,-0.4126,0,0,0,0,0,0,0,-0.3336,-0.3366,-0.3698,-0.3684,-0.3699,-0.3709,-0.3735,-0.3803,-0.3905,-0.3831,-0.384,-0.3895,-0.4023,-0.4049,-0.406,-0.4161,-0.4117,-0.4123,-0.4127,-0.413,-0.4246,-0.4246,0,0,0,0,0,0,-0.3344,-0.3354,-0.3691,-0.3707,-0.3541,-0.3719,-0.3748,-0.3808,-0.3906,-0.3927,-0.3895,-0.3897,-0.4038,-0.4052,-0.4066,-0.4035,-0.4124,-0.413,-0.4134,-0.4247,-0.4246,-0.4245,0,0,0,0,0,0,-0.3333,-0.3371,-0.3681,-0.3548,-0.3591,-0.3729,-0.3795,-0.3813,-0.3844,-0.3959,-0.3974,-0.3909,-0.4038,-0.4056,-0.4095,-0.4045,-0.4133,-0.414,-0.4249,-0.4247,-0.4246,-0.4034,0,0,0,0,0,0,-0.3318,-0.3366,-0.336,-0.355,-0.36,-0.3741,-0.3798,-0.3819,-0.3887,-0.3891,-0.3976,-0.3991,-0.4039,-0.4084,-0.4102,-0.4056,-0.4145,-0.425,-0.4248,-0.4246,-0.4042,-0.4025,-0.4011,0,0,0,0,0,-0.3301,-0.3301,-0.3358,-0.3397,-0.3605,-0.3742,-0.3763,-0.3849,-0.3887,-0.3876,-0.3934,-0.3988,-0.4085,-0.4089,-0.411,-0.4065,-0.4251,-0.4248,-0.4246,-0.4049,-0.4028,-0.4011,0,0,0,0,0,0,-0.3109,-0.3315,-0.3379,-0.3445,-0.3573,-0.3756,-0.3755,-0.3848,-0.389,-0.3886,-0.3982,-0.3999,-0.4013,-0.4082,-0.4084,-0.4097,-0.4176,-0.4178,-0.4018,-0.4,-0.3985,-0.3921,-0.4151,0,0,0,0,0,-0.3071,-0.3119,-0.3327,-0.3377,-0.343,-0.3594,-0.365,-0.3734,-0.3834,-0.3853,-0.3922,-0.3985,-0.4023,-0.4044,-0.4096,-0.4111,-0.4111,-0.4098,-0.4082,-0.4068,-0.4032,-0.397,-0.3943,-0.4238,-0.4238,-0.4238,0,0,-0.3029,-0.3138,-0.3174,-0.3337,-0.3433,-0.3496,-0.3619,-0.371,-0.3746,-0.3865,-0.3878,-0.3939,-0.402,-0.4016,-0.4029,-0.4063,-0.3986,-0.4065,-0.4052,-0.4024,-0.3965,-0.3935,-0.3909,-0.4236,-0.4237,-0.4237,0,0,-0.2969,-0.3049,-0.3069,-0.3153,-0.3307,-0.3407,-0.3436,-0.3611,-0.3646,-0.3713,-0.3778,-0.3782,-0.3901,-0.3891,-0.3918,-0.3854,-0.391,-0.3909,-0.3767,-0.3707,-0.368,-0.3657,-0.3609,-0.3583,-0.3893,-0.3893,-0.3893,0,-0.2902,-0.2975,-0.3091,-0.3125,-0.3185,-0.3362,-0.3398,-0.3461,-0.3621,-0.3632,-0.3688,-0.3767,-0.3817,-0.3776,-0.3742,-0.3806,-0.3807,-0.3823,-0.3677,-0.3655,-0.3634,-0.3591,-0.3565,-0.3882,-0.3884,-0.3885,-0.3886,0,-0.2879,-0.2916,-0.2927,-0.3025,-0.3081,-0.3147,-0.3279,-0.3315,-0.3402,-0.3476,-0.348,-0.3535,-0.3574,-0.3588,-0.3647,-0.3536,-0.3594,-0.3662,-0.3705,-0.359,-0.3555,-0.3531,-0.3867,-0.3871,-0.3874,-0.3877,0,0,-0.2811,-0.2897,-0.2901,-0.2922,-0.3041,-0.3106,-0.3116,-0.3194,-0.3207,-0.3279,-0.3272,-0.3277,-0.3316,-0.3345,-0.3402,-0.3335,-0.3176,-0.3429,-0.3431,-0.3344,-0.3053,-0.2967,-0.2934,-0.3229,-0.3224,-0.322,-0.3081,0,-0.2769,-0.2794,-0.2848,-0.2865,-0.2896,-0.2995,-0.2999,-0.3066,-0.3132,-0.3152,-0.3161,-0.3184,-0.3226,-0.3246,-0.3167,-0.3224,-0.3108,-0.3208,-0.321,-0.3209,-0.3114,-0.29,-0.2823,-0.268,-0.3058,-0.3054,-0.3052,0,-0.2735,-0.2761,-0.2766,-0.2806,-0.2825,-0.284,-0.2881,-0.2914,-0.2947,-0.2993,-0.2973,-0.3037,-0.2958,-0.3023,-0.2924,-0.3004,-0.2973,-0.2981,-0.2978,-0.2947,-0.3076,-0.2864,-0.2624,-0.2619,-0.3016,-0.3019,-0.3022,0,-0.2656,-0.2698,-0.2695,-0.2715,-0.2784,-0.2776,-0.2807,-0.285,-0.2873,-0.2883,-0.2908,-0.2854,-0.2867,-0.2798,-0.2811,-0.2873,-0.2709,-0.281,-0.2668,-0.2666,-0.2618,-0.2617,-0.2333,-0.2636,-0.2637,-0.2637,-0.2638,0,-0.2601,-0.2594,-0.2656,-0.2659,-0.2646,-0.2708,-0.2694,-0.2727,-0.2761,-0.2765,-0.2808,-0.28,-0.2813,-0.2764,-0.274,-0.2613,-0.2634,-0.2561,-0.2582,-0.2545,-0.2539,-0.2557,-0.263,-0.2632,-0.2633,-0.2634,-0.2635,0,-0.2506,-0.2554,-0.2551,-0.2601,-0.261,-0.2597,-0.2639,-0.2643,-0.2687,-0.2694,-0.2696,-0.2744,-0.2679,-0.2653,-0.2573,-0.2527,-0.2376,-0.2359,-0.2314,-0.2326,-0.2192,-0.2259,-0.2025,-0.1962,-0.2166,-0.2162,-0.2159,0,-0.2455,-0.245,-0.2492,-0.2495,-0.2509,-0.2514,-0.2527,-0.2587,-0.2606,-0.2654,-0.2651,-0.2615,-0.2566,-0.2406,-0.2304,-0.2157,-0.2205,-0.2011,-0.2063,-0.2071,-0.2165,-0.2231,-0.2203,-0.1935,-0.193,-0.1926,-0.1923,0,-0.2348,-0.2368,-0.2371,-0.2384,-0.2393,-0.2404,-0.2427,-0.2433,-0.2509,-0.252,-0.2504,-0.2461,-0.2337,-0.2168,-0.1999,-0.1917,-0.1978,-0.1925,-0.1934,-0.1902,-0.1955,-0.1947,-0.2177,-0.1889,-0.1893,-0.1895,-0.1897,-0.1899,-0.225,-0.2232,-0.2247,-0.2241,-0.2263,-0.2259,-0.2209,-0.2272,-0.2261,-0.2244,-0.2303,-0.2204,-0.2103,-0.185,-0.1749,-0.1591,-0.1687,-0.1575,-0.1641,-0.1695,-0.1639,-0.1769,-0.1515,-0.1516,-0.1517,-0.1518,-0.1519,0,-0.2111,-0.2106,-0.2106,-0.2086,-0.205,-0.211,-0.2113,-0.2047,-0.1988,-0.2039,-0.1987,-0.1873,-0.17,-0.1615,-0.1458,-0.1365,-0.1352,-0.1343,-0.1435,-0.1408,-0.15,-0.1493,-0.1219,-0.1219,-0.1219,-0.1219,-0.122,-0.122,-0.2033,-0.1976,-0.1979,-0.1862,-0.1852,-0.1738,-0.1699,-0.1653,-0.1646,-0.1561,-0.1535,-0.1484,-0.1468,-0.1556,-0.1413,-0.1322,-0.1318,-0.1262,-0.1289,-0.1414,-0.1443,-0.1471,-0.1473,-0.12,-0.12,-0.1143,-0.1143,-0.1143]},{"header":{"parameterUnit":"m.s-1","parameterCategory":2,"la1":30.2991,"la2":30.254,"lo1":-89.0895,"lo2":-89.0444,"dy":0.0017,"dx":0.0017,"nx":28,"ny":28,"refTime":"2024-06-06T21:00:00:Z","depth":"0","parameterNumber":3,"parameterNumberName":"V-component_of_CURRENTS"},"data":[0,0,0,0,0,0,0,0,0,0,0,0,0,0,0,0,0,0,0,0,0,0,0,0,0,0,0,0,0,0,0,0,0,0,0,0,0,0,0,0,0,0,0,0,0,0,0,0,0,0,0,0,0,0,0,0,0,0,-0.0426,-0.0424,0,-0.0251,-0.0249,-0.0247,-0.0119,-0.0118,-0.0117,-0.0116,0.0277,0.0286,0.0295,0,0,0,0,0,0,0,0,0,0,0,0,0,-0.0552,-0.0551,-0.0426,-0.0424,-0.0422,-0.0252,-0.0249,-0.0247,-0.0119,-0.0118,-0.0116,-0.0115,0.0274,0.0285,0.0296,0,0,0,0,0,0,0,0,0,0,0,0,0,-0.045,-0.0551,-0.0426,-0.0337,-0.0328,-0.0252,-0.0249,-0.0246,-0.0119,-0.0118,-0.0116,-0.0115,0.027,0.0284,0.0298,0.0351,0,0,0.0341,0.0347,0,0,0,0,0,0,0,0,-0.0456,-0.0445,-0.0353,-0.0343,-0.0332,-0.0205,-0.015,-0.0036,-0.012,-0.0199,-0.0116,-0.0114,0.0135,0.016,0.0186,0.0369,0.0386,0.0342,0.035,0.0356,0.036,0,0,0,0,0,0,0,-0.0463,-0.0452,-0.0357,-0.035,-0.0338,-0.0273,-0.0257,-0.0128,-0.004,-0.0192,-0.0182,-0.0163,0.0142,0.0171,0.0197,0.0392,0.0341,0.0354,0.0363,0.0368,0.065,0.065,0,0,0,0,0,0,-0.0491,-0.0459,-0.0362,-0.0352,-0.0391,-0.0272,-0.0255,-0.0248,-0.0045,-0.0015,-0.0164,-0.0157,0.0147,0.018,0.0211,0.0251,0.0356,0.037,0.0378,0.0651,0.065,0.0649,0,0,0,0,0,0,-0.0495,-0.0485,-0.037,-0.04,-0.0381,-0.0273,-0.0265,-0.0245,-0.0216,-0.0027,0.0008,-0.0156,0.0149,0.0191,0.0296,0.0269,0.0376,0.0389,0.0653,0.0651,0.065,0.0355,0,0,0,0,0,0,-0.05,-0.0488,-0.0502,-0.0403,-0.038,-0.0349,-0.0266,-0.0243,-0.0207,-0.0196,-0.0008,0.003,0.0154,0.0273,0.031,0.0291,0.04,0.0654,0.0652,0.065,0.0366,0.0344,0.0325,0,0,0,0,0,-0.0505,-0.0536,-0.0504,-0.0492,-0.04,-0.0351,-0.0335,-0.025,-0.0209,-0.0215,-0.0096,0.0024,0.0289,0.0283,0.0326,0.031,0.0655,0.0652,0.065,0.0375,0.0348,0.0325,0,0,0,0,0,0,-0.0588,-0.0523,-0.0486,-0.0492,-0.0436,-0.033,-0.0325,-0.0269,-0.0183,-0.0164,0.0008,0.0053,0.013,0.0266,0.0255,0.039,0.0495,0.0501,0.0271,0.0247,0.0227,0.0224,0.0412,0,0,0,0,0,-0.0618,-0.0625,-0.0545,-0.0547,-0.0529,-0.0431,-0.0402,-0.0347,-0.0254,-0.0216,-0.0093,0.0048,0.0155,0.0233,0.0349,0.0429,0.0551,0.0452,0.0431,0.0412,0.0441,0.0557,0.0548,0.0642,0.0642,0.0642,0,0,-0.0644,-0.0612,-0.0612,-0.0566,-0.0512,-0.0494,-0.041,-0.038,-0.0361,-0.0182,-0.0127,-0.0025,0.0156,0.0223,0.0274,0.0337,0.0441,0.041,0.0391,0.0433,0.0553,0.0544,0.0536,0.0641,0.0641,0.0641,0,0,-0.0702,-0.068,-0.0703,-0.0672,-0.0614,-0.0555,-0.0557,-0.047,-0.0433,-0.0376,-0.0254,-0.0181,0.0003,0.0101,0.0184,0.0131,0.0312,0.0179,0.0093,0.02,0.0193,0.0188,0.0278,0.0284,0.0185,0.0184,0.0184,0,-0.0734,-0.0748,-0.0702,-0.0711,-0.0683,-0.0593,-0.0595,-0.0554,-0.0448,-0.0407,-0.0387,-0.0165,-0.0056,0.0056,0.0014,0.0082,0.0181,0.0155,0.0169,0.0167,0.0168,0.0263,0.0273,0.017,0.0171,0.0173,0.0174,0,-0.0797,-0.0809,-0.0822,-0.08,-0.0772,-0.0765,-0.0695,-0.067,-0.0619,-0.0553,-0.0467,-0.0349,-0.0195,-0.0184,-0.0104,-0.004,0.0036,0.0103,0.0215,0.014,0.0245,0.0261,0.0149,0.0154,0.0158,0.0162,0,0,-0.0852,-0.0866,-0.0866,-0.0868,-0.0817,-0.0794,-0.0779,-0.0717,-0.0679,-0.0621,-0.0557,-0.0465,-0.0389,-0.029,-0.0193,-0.0126,-0.0106,-0.0026,-0.0013,0.0035,0.0133,0.0172,0.0196,-0.0035,-0.0032,-0.0031,0.0184,0,-0.0904,-0.0958,-0.0935,-0.0952,-0.0962,-0.0885,-0.0867,-0.08,-0.0732,-0.0659,-0.0558,-0.0466,-0.0428,-0.037,-0.0306,-0.0128,-0.0065,-0.0169,0.023,0.0242,0.0262,0.0215,0.0259,0.0454,0.0201,0.0204,0.0206,0,-0.0959,-0.0987,-0.1033,-0.1017,-0.101,-0.1003,-0.0924,-0.0896,-0.0779,-0.0723,-0.0621,-0.0515,-0.0405,-0.0377,-0.0129,-0.0189,-0.0052,0.0058,0.0071,0.0241,0.0313,0.0507,0.0496,0.0658,0.0233,0.0231,0.0229,0,-0.1008,-0.104,-0.108,-0.1078,-0.1055,-0.1046,-0.1015,-0.0915,-0.0874,-0.0751,-0.0693,-0.0532,-0.0432,-0.0256,-0.0049,-0.0071,0.0232,0.0247,0.0411,0.0416,0.0605,0.0622,0.0787,0.0416,0.0416,0.0415,0.0415,0,-0.1062,-0.1088,-0.1115,-0.1134,-0.1152,-0.1106,-0.1081,-0.1023,-0.0923,-0.0856,-0.0728,-0.0626,-0.0396,-0.0197,-0.0029,0.0251,0.0265,0.0407,0.0481,0.0497,0.0502,0.078,0.0838,0.0423,0.0422,0.042,0.0419,0,-0.1102,-0.1126,-0.117,-0.118,-0.1182,-0.119,-0.1144,-0.1116,-0.1019,-0.0922,-0.0886,-0.0666,-0.0402,-0.0162,0.0159,0.0294,0.0657,0.0635,0.0621,0.0688,0.0951,0.099,0.129,0.1399,0.0844,0.0846,0.0848,0,-0.1127,-0.1164,-0.1212,-0.124,-0.1251,-0.1257,-0.1252,-0.1174,-0.1131,-0.0936,-0.0887,-0.0622,-0.0399,0.0074,0.0368,0.0702,0.0811,0.0911,0.0857,0.0981,0.1081,0.1098,0.1168,0.0982,0.0985,0.0988,0.099,0,-0.1166,-0.1189,-0.1226,-0.1298,-0.1324,-0.1337,-0.1323,-0.1298,-0.1178,-0.1065,-0.0849,-0.0655,-0.0194,0.0224,0.0632,0.0814,0.1027,0.0967,0.1132,0.1232,0.1236,0.137,0.0805,0.1011,0.1009,0.1007,0.1006,0.1005,-0.118,-0.1224,-0.1285,-0.1341,-0.1377,-0.1396,-0.1382,-0.1322,-0.1224,-0.0997,-0.0826,-0.0437,0.009,0.0686,0.0902,0.1309,0.1241,0.1408,0.1455,0.1467,0.1543,0.0996,0.1253,0.1252,0.1252,0.1251,0.1251,0,-0.1197,-0.1254,-0.1321,-0.1385,-0.1422,-0.1431,-0.1405,-0.1342,-0.12,-0.091,-0.0655,0.0041,0.0551,0.103,0.1561,0.1783,0.1827,0.1876,0.1926,0.1982,0.1556,0.1531,0.1817,0.1816,0.1816,0.1816,0.1816,0.1816,-0.1208,-0.1282,-0.1327,-0.1401,-0.1439,-0.144,-0.1413,-0.1284,-0.1059,-0.0564,-0.0087,0.0302,0.0929,0.1673,0.2162,0.2208,0.2406,0.2379,0.2482,0.2186,0.2145,0.2106,0.2098,0.2497,0.2498,0.2901,0.2905,0.2908]}],[{"header":{"parameterUnit":"m.s-1","parameterCategory":2,"la1":30.2991,"la2":30.254,"lo1":-89.0895,"lo2":-89.0444,"dy":0.0017,"dx":0.0017,"nx":28,"ny":28,"refTime":"2024-06-06T21:00:00:Z","depth":"2","parameterNumber":2,"parameterNumberName":"U-component_of_CURRENTS"},"data":[0,0,0,0,0,0,0,0,0,0,0,0,0,0,0,0,0,0,0,0,0,0,0,0,0,0,0,0,0,0,0,0,0,0,0,0,0,0,0,0,0,0,0,0,0,0,0,0,0,0,0,0,0,0,0,0,0,0,-0.2654,-0.2655,0,-0.269,-0.2691,-0.2691,-0.2698,-0.2698,-0.2698,-0.2698,-0.2739,-0.274,-0.2741,0,0,0,0,0,0,0,0,0,0,0,0,0,-0.2558,-0.2559,-0.2654,-0.2655,-0.2656,-0.269,-0.2691,-0.2691,-0.2698,-0.2698,-0.2698,-0.2698,-0.2739,-0.274,-0.2741,0,0,0,0,0,0,0,0,0,0,0,0,0,-0.2594,-0.256,-0.2654,-0.2666,-0.2668,-0.269,-0.2691,-0.2691,-0.2698,-0.2698,-0.2698,-0.2698,-0.2738,-0.274,-0.2742,-0.2751,0,0,-0.2746,-0.2747,0,0,0,0,0,0,0,0,-0.2592,-0.2597,-0.2663,-0.2665,-0.2667,-0.2693,-0.2672,-0.2712,-0.2698,-0.2682,-0.2698,-0.2698,-0.2726,-0.2729,-0.2731,-0.2753,-0.2754,-0.2747,-0.2748,-0.2748,-0.2749,0,0,0,0,0,0,0,-0.259,-0.2596,-0.2665,-0.2664,-0.2667,-0.2658,-0.2663,-0.2679,-0.2701,-0.2684,-0.2685,-0.2695,-0.2727,-0.2729,-0.2732,-0.2755,-0.2747,-0.2748,-0.2749,-0.275,-0.2735,-0.2733,0,0,0,0,0,0,-0.2594,-0.2594,-0.2664,-0.2667,-0.2633,-0.266,-0.2666,-0.2682,-0.2701,-0.2705,-0.2695,-0.2695,-0.2726,-0.273,-0.2733,-0.2742,-0.2748,-0.275,-0.2751,-0.2736,-0.2734,-0.2733,0,0,0,0,0,0,-0.2592,-0.26,-0.2663,-0.2633,-0.2641,-0.2663,-0.268,-0.2682,-0.2695,-0.271,-0.2713,-0.2706,-0.2726,-0.2731,-0.274,-0.2744,-0.2751,-0.2752,-0.2738,-0.2736,-0.2734,-0.2761,0,0,0,0,0,0,-0.2589,-0.2599,-0.2603,-0.2634,-0.2643,-0.2676,-0.268,-0.2683,-0.2701,-0.2702,-0.272,-0.2724,-0.2727,-0.2738,-0.2742,-0.2746,-0.2753,-0.2739,-0.2737,-0.2734,-0.2762,-0.2761,-0.2759,0,0,0,0,0,-0.2586,-0.2596,-0.2603,-0.2611,-0.2651,-0.2677,-0.268,-0.2693,-0.2702,-0.2704,-0.271,-0.2724,-0.2724,-0.2739,-0.2744,-0.2749,-0.2741,-0.2738,-0.2735,-0.2763,-0.2761,-0.2759,0,0,0,0,0,0,-0.2549,-0.2599,-0.2607,-0.263,-0.2651,-0.2679,-0.2684,-0.27,-0.2707,-0.271,-0.2722,-0.2725,-0.273,-0.2727,-0.2744,-0.2728,-0.2728,-0.2726,-0.2748,-0.2746,-0.2745,-0.2744,-0.2755,0,0,0,0,0,-0.2546,-0.2568,-0.2607,-0.2621,-0.2635,-0.2661,-0.2673,-0.2688,-0.2705,-0.2709,-0.272,-0.272,-0.2719,-0.2725,-0.2722,-0.2729,-0.2708,-0.2725,-0.2723,-0.2723,-0.2721,-0.2696,-0.2694,-0.2723,-0.2723,-0.2723,0,0,-0.2535,-0.2564,-0.2575,-0.2614,-0.2632,-0.2651,-0.2667,-0.2692,-0.2704,-0.2713,-0.2723,-0.2724,-0.2718,-0.2716,-0.2717,-0.2719,-0.2697,-0.2719,-0.2719,-0.2717,-0.2693,-0.2691,-0.2688,-0.2721,-0.2721,-0.2722,0,0,-0.2522,-0.2552,-0.2563,-0.2588,-0.2624,-0.2645,-0.2657,-0.2691,-0.27,-0.2715,-0.2714,-0.2715,-0.2721,-0.2713,-0.2711,-0.2698,-0.2691,-0.2692,-0.2694,-0.2671,-0.2669,-0.2667,-0.2621,-0.2615,-0.2692,-0.2692,-0.2692,0,-0.2501,-0.2526,-0.2567,-0.2585,-0.2602,-0.2646,-0.2658,-0.2678,-0.2707,-0.2712,-0.2716,-0.2713,-0.2716,-0.2711,-0.2701,-0.2699,-0.2675,-0.2712,-0.2672,-0.267,-0.2668,-0.2621,-0.2614,-0.2693,-0.2693,-0.2693,-0.2693,0,-0.2497,-0.2518,-0.2528,-0.2567,-0.2591,-0.2611,-0.2653,-0.2672,-0.2693,-0.2708,-0.2712,-0.2711,-0.2706,-0.2705,-0.2705,-0.2687,-0.267,-0.2678,-0.2687,-0.2667,-0.2618,-0.261,-0.2695,-0.2694,-0.2694,-0.2694,0,0,-0.2447,-0.251,-0.2513,-0.2525,-0.2585,-0.2603,-0.2633,-0.2663,-0.2677,-0.2698,-0.2701,-0.2701,-0.2706,-0.27,-0.27,-0.2684,-0.2646,-0.2676,-0.2674,-0.2647,-0.2576,-0.2474,-0.2455,-0.2655,-0.2654,-0.2653,-0.2542,0,-0.2423,-0.2446,-0.249,-0.2509,-0.2526,-0.2581,-0.2603,-0.264,-0.2667,-0.2682,-0.2692,-0.2692,-0.2703,-0.27,-0.2689,-0.2663,-0.2629,-0.2674,-0.2583,-0.258,-0.2507,-0.2444,-0.2301,-0.2183,-0.2535,-0.2533,-0.2532,0,-0.2397,-0.242,-0.2434,-0.2484,-0.2495,-0.2515,-0.256,-0.2585,-0.2629,-0.2649,-0.2666,-0.2679,-0.267,-0.2676,-0.2624,-0.2654,-0.2609,-0.2584,-0.258,-0.2471,-0.2464,-0.226,-0.2155,-0.2519,-0.252,-0.2521,-0.2522,0,-0.2333,-0.2378,-0.2384,-0.2403,-0.2468,-0.248,-0.2511,-0.2565,-0.2586,-0.2622,-0.2636,-0.2643,-0.2633,-0.2603,-0.2562,-0.2591,-0.2486,-0.2519,-0.2377,-0.2369,-0.222,-0.22,-0.2455,-0.2455,-0.2456,-0.2456,-0.2456,0,-0.229,-0.2293,-0.2354,-0.236,-0.2367,-0.2431,-0.2445,-0.2485,-0.2536,-0.2549,-0.2605,-0.2603,-0.2615,-0.2573,-0.2539,-0.2417,-0.2461,-0.2351,-0.2327,-0.2221,-0.2203,-0.2483,-0.2488,-0.2452,-0.2453,-0.2454,-0.2454,0,-0.2213,-0.2256,-0.2265,-0.2323,-0.2337,-0.234,-0.2401,-0.2419,-0.2476,-0.2495,-0.2504,-0.2553,-0.2495,-0.2475,-0.2406,-0.236,-0.2274,-0.2215,-0.2075,-0.2036,-0.218,-0.2187,-0.205,-0.2045,-0.2041,-0.2038,-0.2035,0,-0.2173,-0.2171,-0.2219,-0.2226,-0.2248,-0.2271,-0.2293,-0.237,-0.2394,-0.2452,-0.245,-0.2424,-0.2372,-0.2233,-0.2146,-0.2026,-0.2129,-0.1832,-0.1861,-0.2144,-0.2135,-0.2149,-0.2161,-0.1668,-0.1663,-0.1658,-0.1655,0,-0.2087,-0.2105,-0.2116,-0.2133,-0.2152,-0.217,-0.2206,-0.2216,-0.2301,-0.2312,-0.2294,-0.225,-0.214,-0.1951,-0.1814,-0.1744,-0.1848,-0.1734,-0.2044,-0.1799,-0.1777,-0.1772,-0.1797,-0.1614,-0.1618,-0.1621,-0.1623,-0.1625,-0.2009,-0.1997,-0.2014,-0.2014,-0.2042,-0.2037,-0.1996,-0.205,-0.2041,-0.201,-0.2073,-0.1942,-0.1906,-0.1604,-0.1492,-0.1411,-0.1547,-0.1496,-0.1514,-0.1535,-0.1517,-0.1489,-0.1267,-0.1269,-0.1271,-0.1273,-0.1274,0,-0.1893,-0.189,-0.1895,-0.1881,-0.1851,-0.1908,-0.1909,-0.1836,-0.1765,-0.1773,-0.1709,-0.1488,-0.1346,-0.1309,-0.1116,-0.1068,-0.1094,-0.103,-0.1082,-0.1121,-0.1157,-0.1124,-0.0768,-0.0766,-0.0765,-0.0763,0,0,-0.183,-0.1782,-0.1781,-0.1676,-0.167,-0.1565,-0.1525,-0.1448,-0.1406,-0.1279,-0.1209,-0.1267,-0.1272,-0.1027,-0.0963,-0.0833,-0.0972,-0.0788,-0.1195,-0.1296,-0.133,-0.1423,-0.1415,0,0,0,0,0]},{"header":{"parameterUnit":"m.s-1","parameterCategory":2,"la1":30.2991,"la2":30.254,"lo1":-89.0895,"lo2":-89.0444,"dy":0.0017,"dx":0.0017,"nx":28,"ny":28,"refTime":"2024-06-06T21:00:00:Z","depth":"2","parameterNumber":3,"parameterNumberName":"V-component_of_CURRENTS"},"data":[0,0,0,0,0,0,0,0,0,0,0,0,0,0,0,0,0,0,0,0,0,0,0,0,0,0,0,0,0,0,0,0,0,0,0,0,0,0,0,0,0,0,0,0,0,0,0,0,0,0,0,0,0,0,0,0,0,0,-0.0419,-0.0418,0,-0.0335,-0.0334,-0.0333,-0.0268,-0.0267,-0.0267,-0.0266,-0.0091,-0.0087,-0.0083,0,0,0,0,0,0,0,0,0,0,0,0,0,-0.0489,-0.0488,-0.0419,-0.0418,-0.0417,-0.0335,-0.0334,-0.0332,-0.0268,-0.0267,-0.0267,-0.0266,-0.0092,-0.0087,-0.0082,0,0,0,0,0,0,0,0,0,0,0,0,0,-0.0437,-0.0488,-0.0419,-0.0375,-0.037,-0.0335,-0.0334,-0.0332,-0.0268,-0.0267,-0.0266,-0.0266,-0.0094,-0.0088,-0.0082,-0.0062,0,0,-0.0063,-0.006,0,0,0,0,0,0,0,0,-0.044,-0.0435,-0.0382,-0.0378,-0.0372,-0.0311,-0.0294,-0.0237,-0.0269,-0.0307,-0.0266,-0.0265,-0.0156,-0.0145,-0.0133,-0.0054,-0.0047,-0.0062,-0.0059,-0.0056,-0.0054,0,0,0,0,0,0,0,-0.0444,-0.0438,-0.0385,-0.0381,-0.0375,-0.0347,-0.0339,-0.0283,-0.0236,-0.0303,-0.0299,-0.0289,-0.0153,-0.0139,-0.0128,-0.0044,-0.0063,-0.0057,-0.0053,-0.0051,0.0083,0.0083,0,0,0,0,0,0,-0.0457,-0.0442,-0.0388,-0.0383,-0.0404,-0.0347,-0.0338,-0.0331,-0.0239,-0.0224,-0.029,-0.0287,-0.015,-0.0135,-0.0121,-0.0073,-0.0056,-0.005,-0.0047,0.0083,0.0083,0.0083,0,0,0,0,0,0,-0.0459,-0.0453,-0.0391,-0.041,-0.04,-0.0347,-0.034,-0.033,-0.0315,-0.023,-0.0213,-0.0285,-0.0149,-0.013,-0.008,-0.0066,-0.0048,-0.0042,0.0084,0.0083,0.0083,0.0012,0,0,0,0,0,0,-0.0461,-0.0455,-0.0465,-0.0411,-0.0399,-0.0377,-0.0341,-0.0329,-0.0311,-0.0306,-0.022,-0.0203,-0.0147,-0.009,-0.0074,-0.0057,-0.0037,0.0084,0.0084,0.0083,0.0015,0.0009,0.0005,0,0,0,0,0,-0.0464,-0.0488,-0.0467,-0.046,-0.0413,-0.0377,-0.0369,-0.0327,-0.0312,-0.031,-0.0257,-0.0206,-0.008,-0.0086,-0.0067,-0.0048,0.0084,0.0084,0.0083,0.0017,0.001,0.0005,0,0,0,0,0,0,-0.0521,-0.0482,-0.0457,-0.0467,-0.0425,-0.0366,-0.0367,-0.0336,-0.0295,-0.0289,-0.0211,-0.0191,-0.014,-0.0091,-0.01,-0.0011,0.0013,0.0016,-0.0044,-0.0049,-0.0054,-0.0069,-0.0032,0,0,0,0,0,-0.054,-0.0547,-0.0492,-0.0496,-0.0481,-0.0425,-0.041,-0.0377,-0.0329,-0.0311,-0.0252,-0.0187,-0.0128,-0.0089,-0.0034,0.0012,0.0064,0.0038,0.0033,0.0029,0.0029,0.0106,0.0108,0.0082,0.0082,0.0082,0,0,-0.056,-0.0541,-0.0543,-0.0509,-0.0476,-0.0457,-0.0414,-0.0393,-0.0372,-0.0297,-0.0262,-0.0205,-0.0122,-0.0071,-0.0043,-0.0026,0.0061,0.0028,0.0024,0.0027,0.0106,0.0109,0.0111,0.0082,0.0082,0.0082,0,0,-0.0605,-0.0588,-0.0606,-0.0579,-0.0537,-0.0494,-0.0491,-0.0433,-0.0405,-0.0365,-0.0303,-0.0243,-0.0162,-0.0092,-0.0048,-0.0045,0.0027,-0.0028,-0.0051,0.0023,0.0026,0.003,0.0089,0.0098,-0.0022,-0.0022,-0.0022,0,-0.063,-0.064,-0.0603,-0.0607,-0.0587,-0.0514,-0.0511,-0.0472,-0.0406,-0.0379,-0.0364,-0.0236,-0.0167,-0.0085,-0.0083,-0.0052,-0.001,-0.0037,0.0017,0.0022,0.0026,0.0087,0.0098,-0.0026,-0.0025,-0.0025,-0.0025,0,-0.0675,-0.0684,-0.0691,-0.0666,-0.0639,-0.0627,-0.056,-0.0532,-0.0488,-0.0437,-0.0366,-0.0279,-0.0199,-0.0164,-0.012,-0.0049,-0.003,-0.0005,0.0029,0.0025,0.0089,0.0101,-0.0031,-0.003,-0.0029,-0.0028,0,0,-0.0718,-0.0724,-0.0724,-0.0725,-0.0669,-0.0649,-0.0615,-0.0554,-0.0529,-0.046,-0.0416,-0.0311,-0.0262,-0.021,-0.0138,-0.0068,0.0002,-0.0031,-0.0026,0.0023,0.0154,0.0171,0.0187,0.0033,0.0035,0.0036,0.0182,0,-0.0755,-0.0793,-0.0771,-0.0777,-0.078,-0.0711,-0.0684,-0.062,-0.0557,-0.05,-0.0394,-0.0329,-0.0278,-0.0239,-0.0162,-0.0036,0.0033,-0.0041,0.0156,0.0162,0.0174,0.0202,0.0168,0.0295,0.0195,0.0197,0.0199,0,-0.0793,-0.0814,-0.0845,-0.0834,-0.0826,-0.0816,-0.075,-0.0717,-0.0616,-0.0568,-0.0483,-0.04,-0.0279,-0.0244,-0.0038,-0.0091,0.0019,0.0114,0.0122,0.0173,0.0203,0.0287,0.0323,0.0221,0.0219,0.0218,0.0216,0,-0.0834,-0.0855,-0.0885,-0.0881,-0.0858,-0.0854,-0.0827,-0.0743,-0.071,-0.0609,-0.0571,-0.0428,-0.0344,-0.0195,-0.0005,-0.0019,0.0218,0.0231,0.0351,0.0353,0.0382,0.0384,0.0373,0.0372,0.0372,0.0372,0.0371,0,-0.0875,-0.0896,-0.0916,-0.0932,-0.0954,-0.0913,-0.0904,-0.0857,-0.0781,-0.0734,-0.0616,-0.0539,-0.0328,-0.0167,-0.0012,0.0211,0.0219,0.0356,0.0399,0.0355,0.0352,0.0333,0.0327,0.0377,0.0376,0.0375,0.0374,0,-0.0911,-0.0927,-0.0964,-0.0975,-0.098,-0.0994,-0.097,-0.0957,-0.0882,-0.0816,-0.0785,-0.0602,-0.0388,-0.0178,0.0091,0.0211,0.0415,0.049,0.0414,0.0445,0.0499,0.0487,0.0639,0.0641,0.0643,0.0644,0.0646,0,-0.0934,-0.0963,-0.1007,-0.1037,-0.1049,-0.1066,-0.1072,-0.1015,-0.0989,-0.0843,-0.0809,-0.0598,-0.0422,-0.004,0.0212,0.0488,0.0486,0.0599,0.0574,0.0503,0.053,0.0515,0.0502,0.0586,0.0587,0.0587,0.0588,0,-0.0973,-0.0993,-0.1027,-0.1098,-0.113,-0.1153,-0.1155,-0.1145,-0.1054,-0.0969,-0.0807,-0.0654,-0.0294,0.0019,0.0351,0.0498,0.0547,0.0617,0.0597,0.051,0.0462,0.0485,0.0472,0.0592,0.0591,0.0591,0.0591,0.0591,-0.0994,-0.1037,-0.1091,-0.115,-0.1191,-0.1221,-0.122,-0.1182,-0.1115,-0.0949,-0.0811,-0.0549,-0.0266,0.0224,0.0451,0.064,0.0638,0.0683,0.0678,0.0674,0.0628,0.0584,0.0728,0.0729,0.0729,0.0729,0.073,0,-0.1021,-0.1073,-0.1137,-0.1204,-0.1247,-0.1259,-0.1253,-0.1206,-0.1102,-0.0923,-0.0728,-0.0392,-0.0055,0.0224,0.054,0.0727,0.07,0.074,0.0674,0.0669,0.0665,0.0615,0.0714,0.0715,0.0715,0.0716,0,0,-0.1038,-0.1108,-0.1147,-0.1229,-0.1271,-0.1288,-0.1273,-0.1169,-0.1029,-0.0815,-0.0615,-0.036,-0.0026,0.0199,0.043,0.0586,0.0573,0.0587,0.0579,0.0469,0.0463,0.0612,0.0528,0,0,0,0,0]}],[{"header":{"parameterUnit":"m.s-1","parameterCategory":2,"la1":30.2991,"la2":30.254,"lo1":-89.0895,"lo2":-89.0444,"dy":0.0017,"dx":0.0017,"nx":28,"ny":28,"refTime":"2024-06-06T21:00:00:Z","depth":"4","parameterNumber":2,"parameterNumberName":"U-component_of_CURRENTS"},"data":[0,0,0,0,0,0,0,0,0,0,0,0,0,0,0,0,0,0,0,0,0,0,0,0,0,0,0,0,0,0,0,0,0,0,0,0,0,0,0,0,0,0,0,0,0,0,0,0,0,0,0,0,0,0,0,0,0,0,-0.1737,-0.1738,0,-0.1809,-0.181,-0.1811,-0.1869,-0.1869,-0.187,-0.1871,-0.1927,-0.1928,-0.1929,0,0,0,0,0,0,0,0,0,0,0,0,0,-0.167,-0.1671,-0.1737,-0.1738,-0.1739,-0.1809,-0.181,-0.1811,-0.1869,-0.187,-0.187,-0.1871,-0.1927,-0.1928,-0.1929,0,0,0,0,0,0,0,0,0,0,0,0,0,-0.1717,-0.1671,-0.1737,-0.1776,-0.178,-0.1809,-0.181,-0.1811,-0.1869,-0.187,-0.187,-0.1871,-0.1927,-0.1928,-0.1929,-0.1922,0,0,-0.1934,-0.1935,0,0,0,0,0,0,0,0,-0.1714,-0.1719,-0.1769,-0.1773,-0.1778,-0.1831,-0.1807,-0.1847,-0.1868,-0.1835,-0.1871,-0.1872,-0.1893,-0.1897,-0.1909,-0.1925,-0.1927,-0.1934,-0.1935,-0.1936,-0.1936,0,0,0,0,0,0,0,-0.1711,-0.1716,-0.1766,-0.177,-0.1775,-0.1797,-0.1804,-0.1815,-0.1858,-0.1838,-0.1843,-0.185,-0.1895,-0.1908,-0.1911,-0.1928,-0.1934,-0.1935,-0.1936,-0.1937,-0.1998,-0.1998,0,0,0,0,0,0,-0.1699,-0.1713,-0.1764,-0.1768,-0.1747,-0.1797,-0.1805,-0.1813,-0.1859,-0.1867,-0.1849,-0.1852,-0.1905,-0.1909,-0.1913,-0.1982,-0.1936,-0.1937,-0.1938,-0.1997,-0.1998,-0.1999,0,0,0,0,0,0,-0.1697,-0.1703,-0.1761,-0.1742,-0.1751,-0.1797,-0.1806,-0.1814,-0.1859,-0.1867,-0.1875,-0.1889,-0.1906,-0.1911,-0.1953,-0.1981,-0.1938,-0.1939,-0.1996,-0.1997,-0.1998,-0.207,0,0,0,0,0,0,-0.1695,-0.1702,-0.172,-0.1741,-0.1752,-0.1798,-0.1805,-0.1815,-0.186,-0.1866,-0.1903,-0.1907,-0.1907,-0.1951,-0.1955,-0.1983,-0.194,-0.1995,-0.1997,-0.1998,-0.2067,-0.2073,-0.2079,0,0,0,0,0,-0.1692,-0.1712,-0.1721,-0.1728,-0.177,-0.1799,-0.1808,-0.1843,-0.1862,-0.1886,-0.1914,-0.1908,-0.1962,-0.1954,-0.1957,-0.1986,-0.1995,-0.1996,-0.1998,-0.2064,-0.2072,-0.2079,0,0,0,0,0,0,-0.1693,-0.172,-0.173,-0.1758,-0.1785,-0.181,-0.184,-0.186,-0.1903,-0.1918,-0.1925,-0.1932,-0.1976,-0.1968,-0.1959,-0.2004,-0.1974,-0.1976,-0.2023,-0.203,-0.2036,-0.2026,-0.1942,0,0,0,0,0,-0.1699,-0.1724,-0.1746,-0.1772,-0.1787,-0.1819,-0.1842,-0.1866,-0.1896,-0.1918,-0.1944,-0.1963,-0.1979,-0.1997,-0.2008,-0.2039,-0.2008,-0.2056,-0.2062,-0.2067,-0.206,-0.2048,-0.2053,-0.2004,-0.2004,-0.2004,0,0,-0.1707,-0.1725,-0.1741,-0.1775,-0.18,-0.1828,-0.1837,-0.188,-0.1912,-0.1915,-0.1978,-0.1991,-0.1992,-0.2028,-0.2046,-0.2031,-0.2063,-0.2069,-0.2074,-0.2064,-0.205,-0.2055,-0.2059,-0.2005,-0.2005,-0.2005,0,0,-0.1719,-0.1751,-0.177,-0.1797,-0.1838,-0.1858,-0.1877,-0.192,-0.1953,-0.2002,-0.201,-0.2043,-0.2075,-0.2082,-0.2086,-0.213,-0.2096,-0.2136,-0.2165,-0.2155,-0.2158,-0.2161,-0.2119,-0.2118,-0.214,-0.214,-0.214,0,-0.1727,-0.1752,-0.1782,-0.1807,-0.1833,-0.1874,-0.1901,-0.1938,-0.1994,-0.2017,-0.2031,-0.2084,-0.2095,-0.2124,-0.2143,-0.2145,-0.2121,-0.2142,-0.2163,-0.2165,-0.2167,-0.2123,-0.2121,-0.2144,-0.2143,-0.2143,-0.2143,0,-0.1741,-0.1777,-0.1794,-0.1837,-0.1872,-0.1906,-0.195,-0.1999,-0.2043,-0.207,-0.2124,-0.2145,-0.2169,-0.2184,-0.2181,-0.2204,-0.2176,-0.2173,-0.2146,-0.2177,-0.2128,-0.2124,-0.2149,-0.2148,-0.2147,-0.2146,0,0,-0.171,-0.1787,-0.1796,-0.1822,-0.1892,-0.1916,-0.198,-0.2031,-0.2069,-0.213,-0.2165,-0.2211,-0.2226,-0.2229,-0.2236,-0.2236,-0.2235,-0.2217,-0.2215,-0.2177,-0.2189,-0.2042,-0.2023,-0.2243,-0.2243,-0.2243,-0.2147,0,-0.171,-0.1755,-0.18,-0.1856,-0.1882,-0.1947,-0.1997,-0.2056,-0.2108,-0.2156,-0.219,-0.2226,-0.2242,-0.2259,-0.2266,-0.2241,-0.223,-0.2259,-0.2162,-0.2158,-0.2026,-0.2015,-0.2243,-0.2144,-0.2143,-0.2142,-0.2142,0,-0.1696,-0.1732,-0.1782,-0.1861,-0.188,-0.1926,-0.2008,-0.2057,-0.2131,-0.2171,-0.222,-0.2244,-0.2268,-0.2272,-0.2247,-0.2267,-0.2232,-0.2209,-0.2205,-0.2035,-0.2003,-0.2107,-0.2134,-0.2135,-0.2136,-0.2136,-0.2137,0,-0.1638,-0.1717,-0.1757,-0.1786,-0.1881,-0.1924,-0.1978,-0.2061,-0.21,-0.2177,-0.2203,-0.2245,-0.2251,-0.2239,-0.2205,-0.2228,-0.2149,-0.217,-0.1999,-0.1988,-0.2121,-0.2119,-0.2137,-0.2137,-0.2137,-0.2138,-0.2138,0,-0.1601,-0.1638,-0.1739,-0.1761,-0.1813,-0.1893,-0.1952,-0.2016,-0.2092,-0.2118,-0.2201,-0.2204,-0.2244,-0.2214,-0.219,-0.2061,-0.2133,-0.1982,-0.195,-0.2151,-0.2154,-0.2117,-0.2116,-0.2134,-0.2135,-0.2135,-0.2136,0,-0.1525,-0.1595,-0.1647,-0.1753,-0.1788,-0.1824,-0.193,-0.1964,-0.2049,-0.2081,-0.2103,-0.2161,-0.2112,-0.2115,-0.2065,-0.2004,-0.1923,-0.1861,-0.2046,-0.2029,-0.1774,-0.1779,-0.1656,-0.165,-0.1645,-0.1641,-0.1637,0,-0.1487,-0.1507,-0.1622,-0.1654,-0.1707,-0.1777,-0.1821,-0.1928,-0.1955,-0.2029,-0.202,-0.2015,-0.2032,-0.1823,-0.1861,-0.177,-0.176,-0.1705,-0.177,-0.1742,-0.1724,-0.1736,-0.1747,-0.1629,-0.1628,-0.1626,-0.1625,0,-0.1407,-0.1463,-0.1506,-0.1569,-0.1627,-0.1673,-0.1739,-0.1739,-0.1839,-0.1938,-0.1869,-0.1827,-0.1754,-0.1707,-0.1632,-0.1588,-0.174,-0.1652,-0.1663,-0.1723,-0.1708,-0.1697,-0.1714,-0.1607,-0.161,-0.1611,-0.1612,0,-0.1347,-0.1357,-0.142,-0.1458,-0.1528,-0.1531,-0.1586,-0.1594,-0.1624,-0.1715,-0.168,-0.1679,-0.1724,-0.1607,-0.1551,-0.1478,-0.1471,-0.1438,-0.1461,-0.1481,-0.147,-0.1428,-0.119,0,0,0,0,0,-0.1273,-0.1266,-0.1301,-0.133,-0.1393,-0.1421,-0.1511,-0.1568,-0.1662,-0.1564,-0.1615,-0.1544,-0.1449,-0.1455,-0.1339,-0.1477,-0.1482,-0.1339,-0.1459,-0.1508,-0.1528,-0.1533,0,0,0,0,0,0,-0.1221,-0.1248,-0.1253,-0.1204,-0.1198,-0.124,-0.1287,-0.1358,-0.131,-0.1413,-0.136,-0.1442,-0.1366,-0.147,-0.13,-0.1301,-0.1343,-0.1354,-0.1349,-0.1496,-0.1515,-0.1531,-0.1544,0,0,0,0,0]},{"header":{"parameterUnit":"m.s-1","parameterCategory":2,"la1":30.2991,"la2":30.254,"lo1":-89.0895,"lo2":-89.0444,"dy":0.0017,"dx":0.0017,"nx":28,"ny":28,"refTime":"2024-06-06T21:00:00:Z","depth":"4","parameterNumber":3,"parameterNumberName":"V-component_of_CURRENTS"},"data":[0,0,0,0,0,0,0,0,0,0,0,0,0,0,0,0,0,0,0,0,0,0,0,0,0,0,0,0,0,0,0,0,0,0,0,0,0,0,0,0,0,0,0,0,0,0,0,0,0,0,0,0,0,0,0,0,0,0,-0.0304,-0.0303,0,-0.0258,-0.0257,-0.0257,-0.0225,-0.0225,-0.0225,-0.0225,-0.0142,-0.014,-0.0138,0,0,0,0,0,0,0,0,0,0,0,0,0,-0.0339,-0.0339,-0.0304,-0.0303,-0.0303,-0.0258,-0.0257,-0.0257,-0.0225,-0.0225,-0.0225,-0.0224,-0.0143,-0.014,-0.0138,0,0,0,0,0,0,0,0,0,0,0,0,0,-0.0312,-0.0339,-0.0304,-0.0282,-0.0279,-0.0258,-0.0257,-0.0256,-0.0225,-0.0225,-0.0225,-0.0224,-0.0143,-0.014,-0.0138,-0.0127,0,0,-0.0128,-0.0127,0,0,0,0,0,0,0,0,-0.0314,-0.0311,-0.0285,-0.0283,-0.028,-0.0247,-0.0239,-0.0211,-0.0225,-0.0246,-0.0225,-0.0224,-0.0174,-0.0168,-0.0161,-0.0123,-0.0119,-0.0128,-0.0126,-0.0125,-0.0124,0,0,0,0,0,0,0,-0.0316,-0.0312,-0.0286,-0.0285,-0.0282,-0.0265,-0.0261,-0.0234,-0.0212,-0.0244,-0.0242,-0.0236,-0.0172,-0.0164,-0.0159,-0.0118,-0.0128,-0.0126,-0.0124,-0.0123,-0.0029,-0.0029,0,0,0,0,0,0,-0.0323,-0.0314,-0.0287,-0.0284,-0.0296,-0.0265,-0.026,-0.0258,-0.0213,-0.0206,-0.0237,-0.0235,-0.0169,-0.0162,-0.0156,-0.0118,-0.0125,-0.0122,-0.0121,-0.003,-0.0029,-0.0028,0,0,0,0,0,0,-0.0324,-0.0321,-0.0289,-0.0298,-0.0293,-0.0265,-0.0262,-0.0257,-0.0252,-0.0208,-0.02,-0.0237,-0.0169,-0.016,-0.0133,-0.0116,-0.0121,-0.0118,-0.0031,-0.003,-0.0029,-0.0057,0,0,0,0,0,0,-0.0325,-0.0322,-0.0333,-0.0299,-0.0292,-0.0281,-0.0262,-0.0257,-0.0249,-0.0247,-0.0205,-0.0197,-0.0168,-0.0138,-0.013,-0.0112,-0.0116,-0.0032,-0.003,-0.0029,-0.0057,-0.0057,-0.0058,0,0,0,0,0,-0.0326,-0.0344,-0.0334,-0.0331,-0.0306,-0.0281,-0.0276,-0.0255,-0.025,-0.0249,-0.022,-0.0199,-0.0123,-0.0135,-0.0126,-0.0107,-0.0032,-0.0031,-0.0029,-0.0057,-0.0057,-0.0058,0,0,0,0,0,0,-0.0363,-0.0341,-0.0329,-0.0339,-0.0312,-0.0275,-0.028,-0.0262,-0.024,-0.0239,-0.0198,-0.0188,-0.0154,-0.0129,-0.0144,-0.0074,-0.007,-0.0067,-0.0095,-0.0094,-0.0095,-0.011,-0.0114,0,0,0,0,0,-0.0377,-0.0386,-0.0351,-0.0358,-0.0348,-0.0315,-0.0307,-0.0288,-0.0259,-0.025,-0.0219,-0.0181,-0.014,-0.0119,-0.0086,-0.0055,-0.0028,-0.0033,-0.0033,-0.0033,-0.0038,0.0021,0.0025,-0.0023,-0.0023,-0.0023,0,0,-0.0392,-0.0382,-0.0387,-0.0367,-0.0347,-0.0334,-0.031,-0.0298,-0.0283,-0.0244,-0.0224,-0.0186,-0.0134,-0.0096,-0.0077,-0.0073,-0.0006,-0.0031,-0.0032,-0.0037,0.0023,0.0027,0.0031,-0.0022,-0.0022,-0.0022,0,0,-0.0422,-0.0417,-0.0431,-0.0414,-0.0389,-0.036,-0.0359,-0.0322,-0.0304,-0.0278,-0.0238,-0.0191,-0.0146,-0.0093,-0.0062,-0.0042,-0.0012,-0.0031,-0.004,0.0017,0.0022,0.0026,0.0058,0.0066,-0.0027,-0.0027,-0.0027,0,-0.044,-0.0451,-0.0429,-0.0432,-0.0421,-0.0374,-0.0372,-0.0344,-0.0302,-0.0285,-0.0277,-0.0187,-0.0139,-0.0074,-0.0061,-0.0041,-0.0019,-0.0046,0.0016,0.0021,0.0026,0.0058,0.0067,-0.0028,-0.0028,-0.0028,-0.0028,0,-0.0468,-0.048,-0.0486,-0.0471,-0.0454,-0.0447,-0.0399,-0.0381,-0.0353,-0.0317,-0.0263,-0.0197,-0.0142,-0.0108,-0.0078,-0.0015,-0.0015,0.0004,0.0012,0.0028,0.0062,0.0071,-0.003,-0.003,-0.0029,-0.0029,0,0,-0.0493,-0.0506,-0.0507,-0.0514,-0.0476,-0.0464,-0.0437,-0.0394,-0.0381,-0.0325,-0.0298,-0.0204,-0.0171,-0.0133,-0.0078,-0.0019,0.0042,0.0001,0.0004,0.0024,0.0145,0.012,0.0128,0.0065,0.0067,0.0068,0.0152,0,-0.0518,-0.0548,-0.0536,-0.0546,-0.055,-0.0507,-0.0488,-0.0443,-0.0399,-0.0362,-0.0274,-0.0229,-0.0179,-0.0153,-0.0084,0.0008,0.0065,0.0016,0.0134,0.0137,0.0106,0.0138,0.0074,0.0159,0.0161,0.0163,0.0164,0,-0.0538,-0.0559,-0.0586,-0.0592,-0.0589,-0.0587,-0.055,-0.0527,-0.0455,-0.0423,-0.0356,-0.0294,-0.0194,-0.0159,0.0002,-0.0038,0.0047,0.012,0.0125,0.0117,0.013,0.0144,0.0181,0.0179,0.0178,0.0177,0.0176,0,-0.0561,-0.0587,-0.0616,-0.0617,-0.0612,-0.0619,-0.0608,-0.0552,-0.0534,-0.0464,-0.0442,-0.0326,-0.0267,-0.0143,0.0006,0.0003,0.0174,0.0192,0.0251,0.0249,0.0257,0.0252,0.0306,0.0306,0.0305,0.0305,0.0305,0,-0.0581,-0.0606,-0.0641,-0.0657,-0.069,-0.0667,-0.0678,-0.065,-0.0605,-0.0577,-0.0483,-0.043,-0.026,-0.0141,-0.001,0.0141,0.0164,0.0251,0.0275,0.0242,0.0234,0.0263,0.0257,0.0308,0.0308,0.0307,0.0306,0,-0.0597,-0.062,-0.0662,-0.0691,-0.0706,-0.073,-0.074,-0.074,-0.0695,-0.0657,-0.0636,-0.0502,-0.0347,-0.0181,0.0027,0.0114,0.0266,0.0316,0.025,0.0269,0.0304,0.0296,0.0384,0.0384,0.0384,0.0384,0.0384,0,-0.0606,-0.0633,-0.0698,-0.0734,-0.0758,-0.0793,-0.0813,-0.0789,-0.0777,-0.0689,-0.0665,-0.0524,-0.0416,-0.0142,0.0021,0.0248,0.0285,0.0342,0.0343,0.03,0.0315,0.0307,0.0299,0.0384,0.0384,0.0384,0.0384,0,-0.0623,-0.0655,-0.0693,-0.0774,-0.0821,-0.0859,-0.0883,-0.0878,-0.0828,-0.0795,-0.0661,-0.0513,-0.0344,-0.0137,0.003,0.0198,0.0292,0.0343,0.0344,0.0345,0.0301,0.0314,0.0306,0.0383,0.0383,0.0384,0.0384,0,-0.0635,-0.0673,-0.0736,-0.0798,-0.0864,-0.09,-0.091,-0.0876,-0.0852,-0.0744,-0.07,-0.0506,-0.0389,-0.0163,-0.0002,0.0147,0.0189,0.023,0.0238,0.024,0.017,0.0091,0.0134,0,0,0,0,0,-0.064,-0.0687,-0.0753,-0.0823,-0.0886,-0.0917,-0.094,-0.0932,-0.0887,-0.0793,-0.0738,-0.0569,-0.0314,-0.0203,-0.0053,-0.0023,0.0189,0.0151,0.0234,0.0383,0.0383,0.0323,0,0,0,0,0,0,-0.0647,-0.0714,-0.0751,-0.0826,-0.087,-0.0929,-0.0942,-0.0915,-0.0847,-0.0779,-0.0635,-0.0548,-0.0299,-0.039,-0.0051,-0.0008,0.0059,0.0276,0.0278,0.0383,0.0383,0.0383,0.0322,0,0,0,0,0]}]]